FENGYUN 1C DEB

Satellite information

Favourite Embed

Satellite Type and Status

DEBRISIN ORBIT

Key statistics

Satellite FENGYUN 1C DEB at a glance.

Uptime

9667

Days in orbit

Revolutions

≈ 14.4

Per day

Orbit

SSO

Sun Synchronous Orbit

Inclination

98.5

Latest

Satellite identification and parameters

Extended collection of information and parameters for FENGYUN 1C DEB.

Object identification

Identified? True

Debris? True

Object name: FENGYUN 1C DEB

International designator: 1999-025BSM

Object number (NORAD): 31381

Object ID (CCSDS): 31381

Country: PEOPLES REPUBLIC OF CHINA (PRC)

Current information (Y/N): Y

RCS size: SMALL

Orbital parameters

Period: 100.224 minutes

Inclination: 98.4943 deg

SMA: 7147.292 km

Apoapsis: 911.661 km

Periapsis: 626.653 km

RAAN: 23.0398 deg

Eccentricy: 0.01993819

Argument of periapsis: 173.6726 deg

Mean anomaly: 186.705 deg

Mean motion: 14.36780559 rev/day

Mean motion (dot): 0.00003444 rev/day2

B* drag term: 0.00094181949 1/REarth

Two-line elements (TLE)

Creation date: Oct. 26, 2025, 10:54 a.m.

Reference frame: TEME

Reference center: EARTH

Epoch: Oct. 26, 2025, 12:57 a.m. UTC

TLE line 0: 0 FENGYUN 1C DEB

TLE line 1: 1 31381U 99025BSM 25299.03983546 .00003444 00000-0 94182-3 0 9998

TLE line 2: 2 31381 98.4943 23.0398 0199382 173.6726 186.7050 14.36780559967157

Live tracking on map

Real-time ground track for satellite FENGYUN 1C DEB.

In-orbit conjunctions

A list of the most updated potential collisions computed for object FENGYUN 1C DEB.

Target Orbit TCA Probability of collision Miss distance Type
COSMOS 2251 DEB LEO 2024-11-12 22:32:36 0.000135408 929.0 (m) DEBRIS

Associated space launch

Chinese polar orbiting meteorological satellite

FENGYUN 1C DEB was lifted into orbit during the mission ‘Long March 4B | Feng Yun 1C’, on board a Long March 4B space rocket.

The launch took place on May 10, 1999, 1:33 a.m. from Launch Complex 7.

For more information about the launch, click the button.

Launch to space Long March 4B | Feng Yun 1C
Long March 4B | Feng Yun 1C

Agency: N/A

Status: Launch Successful

Launch date: May 10, 1999, 1:33 a.m. UTC

Rocket: Long March 4B

Launch pad: Launch Complex 7

Location: Taiyuan Satellite Launch Center, People's Republic of China

...

Latest news about this satellite

There are no fresh news available about this satellite. Check back as we update our databases every day.


Newsletter sign-up

Weekly statistics, charts and insights to help you stay on top of the space industry.